Regional Weather Roundup
Issued by NWS

Home | Current Version | Previous Version | Graphics & Text | Print | Product List | Glossary On
Versions: 1 2 3 4 5 6 7 8 9 10 11 12 13 14 15 16 17 18 19 20 21 22 23 24 25 26 27 28 29 30 31 32 33 34 35 36 37 38 39 40 41 42 43 44 45 46 47 48 49 50
000
ASUS45 KTFX 042004
RWRMT
MONTANA HOURLY WEATHER ROUNDUP
NATIONAL WEATHER SERVICE GREAT FALLS MT
104 PM MST WED MAR 4 2015

NOTE: "FAIR" INDICATES FEW OR NO CLOUDS BELOW 12000 FEET WITH NO
SIGNIFICANT WEATHER AND/OR OBSTRUCTIONS TO VISIBILITY.

* THESE STATIONS ARE NOT UNDER NWS QUALITY CONTROL. THEY DO NOT
   REPORT WEATHER SUCH AS PRECIPITATION OR FOG.

MTZ001>007-043-042100-
WEST OF THE DIVIDE
CITY           SKY/WX    TMP DP  RH WIND       PRES   REMARKS
KALISPELL      SUNNY     30  14  51 S8        30.21F WCI  22
MISSOULA       SUNNY     32  10  40 CALM      30.25F
BUTTE          SUNNY     25   3  38 SE7       30.11F WCI  17
MULLAN PASS    SUNNY     23   7  50 VRB3      30.11R
* ANACONDA     SUNNY     28   7  41 N3         N/A
* ESSEX        N/A       31   6  34 NW3        N/A
* LINCOLN      N/A       30   5  34 SW7G16     N/A   WCI  23
* LOOKOUT PASS N/A       29   6  37 N6G14      N/A   WCI  23
* POLSON       N/A       31  12  45 SW3G8      N/A
* RONAN APT    SUNNY     32  16  52 N/A        N/A
* SEELEY LAKE  N/A       33   7  33 N2         N/A
* THOMP F APT  SUNNY     28  -3  26 W4G14      N/A
* YAAK HILL    N/A       35  14  42 NW1        N/A
$$

MTZ008-052>055-042100-
SOUTHWEST MONTANA
CITY           SKY/WX    TMP DP  RH WIND       PRES   REMARKS
BOZEMAN        SUNNY     28   7  41 NE5       30.17F WCI  22
DILLON         SUNNY     28   7  41 S10       30.13F WCI  19
* W YELLOWSTON SUNNY     21  -4  33 NW3G8      N/A
* THREE FORKS  SUNNY     30   5  34 N/A        N/A
* BOULDER HILL N/A       23   2  40 SW8        N/A   WCI  14
* MONIDA PASS  N/A       20  -1  39 SW9        N/A   WCI  10
* RAYNOLDS PAS N/A       22  -4  31 E5         N/A   WCI  15
* WHITEHALL    N/A       32   6  33 SW18G25    N/A   WCI  21
* WISE RIVER   N/A       28   1  31 SW4G9      N/A
$$

MTZ009>010-012-014-046-048-049-054-042100-
EAST SLOPES AND CENTRAL MONTANA
CITY           SKY/WX    TMP DP  RH WIND       PRES   REMARKS
CUT BANK       SUNNY     34   9  35 W13G22    30.02F WCI  25
GREAT FALLS    SUNNY     32  10  40 SW16G22   30.07F WCI  21
HELENA         SUNNY     28   7  41 E8        30.15F WCI  20
* DEARBORN     N/A       28  10  47 S10        N/A   WCI  19
* EAST GLACIER N/A       26   6  42 W23G32     N/A   WCI  11
* MONARCH      N/A       24  -5  27 W12        N/A   WCI  13
* PENDROY      N/A       24   8  50 W4         N/A
* ROGERS PASS  N/A       24   4  42 E8G20      N/A   WCI  15
* SWEET GRASS  N/A       27   5  39 S11G16     N/A   WCI  17
$$

MTZ011-013-016-021-035-040-045-047-050-051-042100-
NORTH CENTRAL MONTANA
CITY           SKY/WX    TMP DP  RH WIND       PRES   REMARKS
HAVRE          SUNNY     27   3  35 SW13      30.14F WCI  16
LEWISTOWN      SUNNY     21   5  50 W6        30.09F WCI  13
* N BAR RANCH  SUNNY     23   1  38 NW10      30.07F WCI  13
* CHESTER      N/A       28  -1  28 W5G10      N/A   WCI  22
* DENTON       N/A       29   5  36 S2         N/A
* GEYSER       N/A       29   8  41 W11G16     N/A   WCI  19
* JUDITH GAP   N/A       22   4  46 N3G10      N/A
* LOMA         N/A       31   6  34 NW3        N/A
$$

MTZ017>020-022>027-061-062-042100-
NORTHEAST MONTANA
CITY           SKY/WX    TMP DP  RH WIND       PRES   REMARKS
GLASGOW        SUNNY     10  -8  43 SW7       30.25F WCI  -1
GLENDIVE       PTCLDY    10  -8  43 NW7       30.27F WCI  -1
JORDAN         SUNNY     18  -4  37 NW8       30.21F WCI   8
SIDNEY         SUNNY      7 -13  39 SW5       30.34F WCI  -2
WOLF POINT     SUNNY     14  -9  35 W8        30.30F WCI   3
* BEAVER HILL  N/A        7  -9  47 W9G19      N/A   WCI  -6
* CIRCLE       N/A       12  -3  51 W7G13      N/A   WCI   1
* LINDSAY DVD  N/A        7  -6  55 W11G17     N/A   WCI  -8
* NAVAJO       N/A      N/A N/A N/A NW5        N/A
* SACO         N/A       11  -6  46 SE3G8      N/A
$$

MTZ028>042-056>058-042100-
SOUTHCENTRAL AND SOUTHEAST MONTANA
CITY           SKY/WX    TMP DP  RH WIND       PRES   REMARKS
BAKER          PTCLDY     9  -8  45 NW14G22   30.22F WCI  -7
BILLINGS       SUNNY     23   5  46 SW8       30.14F WCI  14
LIVINGSTON     SUNNY     28   7  41 W23G31    30.10F WCI  14
MILES CITY     CLOUDY    18  -2  41 W9G17     30.25F WCI   7
* LAUREL APT   SUNNY     25   1  35 SE9        N/A   WCI  16
* ROUNDUP APT  SUNNY     25  -4  28 N/A        N/A
* ALZADA       N/A       11  -4  50 W14        N/A   WCI  -5
* HYSHAM       N/A       20  -6  31 W2G12      N/A
* REED POINT   N/A       30  10  43 W25G30     N/A   WCI  16
$$

REGIONAL REPORTS...DAKOTAS
CITY           SKY/WX    TMP DP  RH WIND       PRES   REMARKS
WILLISTON      SUNNY      1 -15  46 NW6       30.34F WCI -11
DICKINSON      SUNNY      9  -9  43 NW13      30.22F WCI  -7
CROSBY         SUNNY     -4 -17  53 W8        30.34F WCI -19
WATFORD CITY   SUNNY      1 -11  56 NW10      30.29F WCI -15
BISMARCK       SUNNY      3 -13  47 NW16      30.35F WCI -16
GRAND FORKS    CLOUDY     1  -9  62 NW16G24   30.32S WCI -19
FARGO          CLOUDY     3  -8  60 NW16G24   30.33S WCI -16
BUFFALO SD     SUNNY     12  -6  44 W21G30    30.13F WCI  -7
RAPID CITY     SUNNY     16   3  56 N16       30.20F WCI   1
$$

REGIONAL REPORTS...WYOMING/IDAHO/WASHINGTON
CITY           SKY/WX    TMP DP  RH WIND       PRES   REMARKS
GILLETTE       PTCLDY    12   0  58 W9        30.14F
SHERIDAN       SUNNY     12   1  61 SW3       30.16F
CODY           SUNNY     19   5  54 CALM      30.09S
YELLOWSTONE LA SUNNY      9  -6  50 VRB3      30.05S
SALMON         SUNNY     30   5  34 N6        30.23S WCI  24
MULLAN PASS    SUNNY     23   7  50 VRB3      30.11S
SAND POINT     SUNNY     34  18  52 E12       30.28S WCI  25
SPOKANE        SUNNY     39  16  39 SW8       30.26F WCI  33

$$



USA.gov is the U.S. government's official web portal to all federal, state and local government web resources and services.